,,,PA_Meas_PMT16A,,PR_Meas_QMR101_102,,RH_Meas_QMH101,,SR_Meas_QMS101,,TA_Meas_QMH101,,GenWind,,GenWind,
date,time,status,PA,status,PR,status,RH,status,SR,status,TA,status,DirAvg,status,SpdAvg,
2011-02-14, 00:00:05,VALID,1003.41,VALID,0,INVALID,163.701,VALID,0,VALID,23.9353,VALID,21,VALID,0.364844,
2011-02-14, 00:01:05,VALID,1003.39,VALID,0,INVALID,163.716,VALID,0,VALID,23.9159,VALID,21,VALID,0.160156,
2011-02-14, 00:02:05,VALID,1003.39,VALID,0,INVALID,163.701,VALID,0,VALID,23.8769,VALID,21,VALID,0,
2011-02-14, 00:03:05,VALID,1003.37,VALID,0,INVALID,163.708,VALID,0,VALID,23.8787,VALID,21,VALID,0.0523437,
2011-02-14, 00:04:05,VALID,1003.38,VALID,0,INVALID,163.746,VALID,0,VALID,23.838,VALID,21,VALID,0.136719,
2011-02-14, 00:05:05,VALID,1003.38,VALID,0,INVALID,163.739,VALID,0,VALID,23.838,VALID,21,VALID,0.184375,
2011-02-14, 00:06:05,VALID,1003.41,VALID,0,INVALID,163.746,VALID,0.100563,VALID,23.8167,VALID,21,VALID,0.334766,
2011-02-14, 00:07:05,VALID,1003.41,VALID,0,INVALID,163.693,VALID,0.100563,VALID,23.7778,VALID,21,VALID,0.519531,
2011-02-14, 00:08:05,VALID,1003.39,VALID,0,INVALID,163.723,VALID,0,VALID,23.7796,VALID,21,VALID,0.382422,
2011-02-14, 00:09:05,VALID,1003.41,VALID,0,INVALID,163.701,VALID,0,VALID,23.7601,VALID,21,VALID,0.423828,
2011-02-14, 00:10:05,VALID,1003.41,VALID,0,INVALID,163.762,VALID,0,VALID,23.7407,VALID,21,VALID,0.503906,
2011-02-14, 00:11:05,VALID,1003.43,VALID,0,INVALID,163.731,VALID,0,VALID,23.6805,VALID,21,VALID,0.536328,
2011-02-14, 00:12:05,VALID,1003.41,VALID,0,INVALID,163.723,VALID,0,VALID,23.6628,VALID,20,VALID,0.558984,
2011-02-14, 00:13:05,VALID,1003.41,VALID,0,INVALID,163.731,VALID,0,VALID,23.6239,VALID,3,VALID,0.566406,
2011-02-14, 00:14:05,VALID,1003.39,VALID,0,INVALID,163.739,VALID,0,VALID,23.5832,VALID,349,VALID,0.783594,
2011-02-14, 00:15:05,VALID,1003.37,VALID,0,INVALID,163.746,VALID,0,VALID,23.585,VALID,353,VALID,0.5375,
2011-02-14, 00:16:05,VALID,1003.35,VALID,0,INVALID,163.754,VALID,0.100563,VALID,23.585,VALID,353,VALID,0.491797,
2011-02-14, 00:17:05,VALID,1003.27,VALID,0,INVALID,163.746,VALID,0,VALID,23.5655,VALID,353,VALID,0.492578,
2011-02-14, 00:18:05,VALID,1003.28,VALID,0,INVALID,163.723,VALID,0,VALID,23.5655,VALID,353,VALID,0.563281,
2011-02-14, 00:19:05,VALID,1003.24,VALID,0,INVALID,163.769,VALID,0,VALID,23.5655,VALID,353,VALID,0.520312,
2011-02-14, 00:20:05,VALID,1003.22,VALID,0,INVALID,163.762,VALID,0,VALID,23.5655,VALID,353,VALID,0.639844,
2011-02-14, 00:21:05,VALID,1003.21,VALID,0,INVALID,163.739,VALID,0,VALID,23.5655,VALID,353,VALID,0.471094,
2011-02-14, 00:22:05,VALID,1003.15,VALID,0,INVALID,163.739,VALID,0,VALID,23.5637,VALID,353,VALID,0.685156,
2011-02-14, 00:23:05,VALID,1003.16,VALID,0,INVALID,163.769,VALID,0.100563,VALID,23.585,VALID,353,VALID,0.696094,
2011-02-14, 00:24:05,VALID,1003.11,VALID,0,INVALID,163.754,VALID,0,VALID,23.5868,VALID,359,VALID,0.958203,
2011-02-14, 00:25:05,VALID,1003.07,VALID,0,INVALID,163.754,VALID,0,VALID,23.5655,VALID,355,VALID,0.808203,
2011-02-14, 00:26:05,VALID,1003.02,VALID,0,INVALID,163.731,VALID,0.100563,VALID,23.585,VALID,352,VALID,0.85625,
2011-02-14, 00:27:05,VALID,1002.99,VALID,0,INVALID,163.723,VALID,0,VALID,23.5832,VALID,347,VALID,0.739453,
2011-02-14, 00:28:05,VALID,1002.94,VALID,0,INVALID,163.723,VALID,0.100563,VALID,23.6239,VALID,349,VALID,0.755859,
2011-02-14, 00:29:05,VALID,1002.94,VALID,0,INVALID,163.746,VALID,0.100563,VALID,23.6416,VALID,337,VALID,0.594922,
2011-02-14, 00:30:05,VALID,1002.93,VALID,0,INVALID,163.731,VALID,0,VALID,23.7212,VALID,344,VALID,0.453125,
2011-02-14, 00:31:05,VALID,1002.91,VALID,0,INVALID,163.754,VALID,0,VALID,23.7407,VALID,341,VALID,0.51875,
2011-02-14, 00:32:05,VALID,1002.93,VALID,0,INVALID,163.716,VALID,0.100563,VALID,23.7796,VALID,341,VALID,0.489844,
2011-02-14, 00:33:05,VALID,1002.93,VALID,0,INVALID,163.731,VALID,0.100563,VALID,23.7973,VALID,340,VALID,0.550391,
2011-02-14, 00:34:05,VALID,1002.93,VALID,0,INVALID,163.723,VALID,0,VALID,23.8362,VALID,341,VALID,0.369531,
2011-02-14, 00:35:05,VALID,1002.91,VALID,0,INVALID,163.723,VALID,0,VALID,23.8769,VALID,341,VALID,0.426562,
2011-02-14, 00:36:05,VALID,1002.94,VALID,0,INVALID,163.731,VALID,0,VALID,23.8964,VALID,341,VALID,0.383594,
2011-02-14, 00:37:05,VALID,1002.93,VALID,0,INVALID,163.708,VALID,0,VALID,23.9159,VALID,341,VALID,0.324609,
2011-02-14, 00:38:05,VALID,1002.95,VALID,0,INVALID,163.708,VALID,0.100563,VALID,23.9353,VALID,341,VALID,0.332812,
2011-02-14, 00:39:05,VALID,1002.96,VALID,0,INVALID,163.701,VALID,0.100563,VALID,23.914,VALID,343,VALID,0.626172,
2011-02-14, 00:40:05,VALID,1002.98,VALID,0,INVALID,163.716,VALID,0,VALID,23.9353,VALID,343,VALID,0.488672,
2011-02-14, 00:41:05,VALID,1002.98,VALID,0,INVALID,163.701,VALID,0,VALID,23.9353,VALID,343,VALID,0.335547,
2011-02-14, 00:42:05,VALID,1002.96,VALID,0,INVALID,163.716,VALID,0,VALID,23.9353,VALID,343,VALID,0.210938,
2011-02-14, 00:43:05,VALID,1002.99,VALID,0,INVALID,163.716,VALID,0,VALID,23.8751,VALID,343,VALID,0.587891,
2011-02-14, 00:44:05,VALID,1002.97,VALID,0,INVALID,163.716,VALID,0.100563,VALID,23.8556,VALID,343,VALID,0.287891,
2011-02-14, 00:45:05,VALID,1002.96,VALID,0,INVALID,163.723,VALID,0.100563,VALID,23.8362,VALID,346,VALID,0.564844,
2011-02-14, 00:46:05,VALID,1002.97,VALID,0,INVALID,163.739,VALID,0,VALID,23.7991,VALID,346,VALID,0.540625,
2011-02-14, 00:47:05,VALID,1002.94,VALID,0,INVALID,163.731,VALID,0,VALID,23.7601,VALID,346,VALID,0.289844,
2011-02-14, 00:48:05,VALID,1002.95,VALID,0,INVALID,163.754,VALID,0,VALID,23.7,VALID,348,VALID,0.526172,
2011-02-14, 00:49:05,VALID,1002.94,VALID,0,INVALID,163.746,VALID,0.100563,VALID,23.6628,VALID,348,VALID,0.597656,
2011-02-14, 00:50:05,VALID,1002.91,VALID,0,INVALID,163.731,VALID,0,VALID,23.6434,VALID,348,VALID,0.641016,
2011-02-14, 00:51:05,VALID,1002.92,VALID,0,INVALID,163.723,VALID,0,VALID,23.6026,VALID,348,VALID,0.546875,
2011-02-14, 00:52:05,VALID,1002.9,VALID,0,INVALID,163.731,VALID,0,VALID,23.6257,VALID,348,VALID,0.6,
2011-02-14, 00:53:05,VALID,1002.92,VALID,0,INVALID,163.754,VALID,0,VALID,23.6044,VALID,348,VALID,0.301562,
2011-02-14, 00:54:05,VALID,1002.89,VALID,0,INVALID,163.746,VALID,0.100563,VALID,23.585,VALID,348,VALID,0.283594,
2011-02-14, 00:55:05,VALID,1002.9,VALID,0,INVALID,163.746,VALID,0.100563,VALID,23.5443,VALID,348,VALID,0.00703125,
2011-02-14, 00:56:05,VALID,1002.9,VALID,0,INVALID,163.731,VALID,0.100563,VALID,23.5443,VALID,348,VALID,0.0730469,
2011-02-14, 00:57:04,VALID,1002.88,VALID,0,INVALID,163.723,VALID,0.100563,VALID,23.5637,VALID,348,VALID,0.125781,
2011-02-14, 00:58:04,VALID,1002.88,VALID,0,INVALID,163.746,VALID,0,VALID,23.5655,VALID,348,VALID,0.402734,
2011-02-14, 00:59:04,VALID,1002.86,VALID,0,INVALID,163.754,VALID,0,VALID,23.5266,VALID,348,VALID,0.394922,
2011-02-14, 01:00:04,VALID,1002.87,VALID,0,INVALID,163.769,VALID,0,VALID,23.4859,VALID,348,VALID,0.489453,
2011-02-14, 01:01:04,VALID,1002.88,VALID,0,INVALID,163.716,VALID,0.100563,VALID,23.4877,VALID,348,VALID,0.689453,
2011-02-14, 01:02:04,VALID,1002.87,VALID,0,INVALID,163.754,VALID,0.100563,VALID,23.4682,VALID,349,VALID,0.626172,
2011-02-14, 01:03:04,VALID,1002.87,VALID,0,INVALID,163.739,VALID,0,VALID,23.4487,VALID,357,VALID,0.659766,
2011-02-14, 01:04:04,VALID,1002.87,VALID,0,INVALID,163.739,VALID,0,VALID,23.47,VALID,357,VALID,0.489062,
2011-02-14, 01:05:04,VALID,1002.86,VALID,0,INVALID,163.746,VALID,0,VALID,23.4487,VALID,357,VALID,0.645703,
2011-02-14, 01:06:04,VALID,1002.91,VALID,0,INVALID,163.754,VALID,0,VALID,23.4487,VALID,348,VALID,0.496094,
2011-02-14, 01:07:04,VALID,1002.85,VALID,0,INVALID,163.769,VALID,0.100563,VALID,23.4311,VALID,356,VALID,0.707031,
2011-02-14, 01:08:04,VALID,1002.85,VALID,0,INVALID,163.731,VALID,0,VALID,23.4098,VALID,359,VALID,0.735156,
2011-02-14, 01:09:04,VALID,1002.83,VALID,0,INVALID,163.723,VALID,0.100563,VALID,23.3904,VALID,359,VALID,0.7375,
2011-02-14, 01:10:04,VALID,1002.82,VALID,0,INVALID,163.762,VALID,0,VALID,23.3904,VALID,359,VALID,0.766016,
2011-02-14, 01:11:04,VALID,1002.8,VALID,0,INVALID,163.731,VALID,0,VALID,23.3886,VALID,349,VALID,0.569531,
2011-02-14, 01:12:04,VALID,1002.81,VALID,0,INVALID,163.754,VALID,0,VALID,23.4098,VALID,355,VALID,0.748047,
2011-02-14, 01:13:04,VALID,1002.8,VALID,0,INVALID,163.746,VALID,0,VALID,23.3709,VALID,355,VALID,0.759375,
2011-02-14, 01:14:04,VALID,1002.79,VALID,0,INVALID,163.769,VALID,0,VALID,23.3904,VALID,355,VALID,0.538281,
2011-02-14, 01:15:04,VALID,1002.81,VALID,0,INVALID,163.784,VALID,0,VALID,23.4098,VALID,355,VALID,0.631641,
2011-02-14, 01:16:04,VALID,1002.82,VALID,0,INVALID,163.762,VALID,0,VALID,23.4098,VALID,355,VALID,0.667578,
2011-02-14, 01:17:04,VALID,1002.83,VALID,0,INVALID,163.746,VALID,0,VALID,23.4293,VALID,354,VALID,0.682422,
2011-02-14, 01:18:04,VALID,1002.82,VALID,0,INVALID,163.746,VALID,0,VALID,23.4487,VALID,353,VALID,0.565625,
2011-02-14, 01:19:04,VALID,1002.82,VALID,0,INVALID,163.746,VALID,0.100563,VALID,23.4877,VALID,351,VALID,0.470313,
2011-02-14, 01:20:04,VALID,1002.82,VALID,0,INVALID,163.746,VALID,0,VALID,23.4682,VALID,351,VALID,0.501172,
2011-02-14, 01:21:04,VALID,1002.8,VALID,0,INVALID,163.754,VALID,0.100563,VALID,23.5071,VALID,351,VALID,0.527344,
2011-02-14, 01:22:04,VALID,1002.81,VALID,0,INVALID,163.716,VALID,0,VALID,23.5266,VALID,349,VALID,0.684766,
2011-02-14, 01:23:04,VALID,1002.79,VALID,0,INVALID,163.708,VALID,0,VALID,23.5655,VALID,349,VALID,0.633203,
2011-02-14, 01:24:04,VALID,1002.79,VALID,0,INVALID,163.723,VALID,0,VALID,23.585,VALID,350,VALID,0.632813,
2011-02-14, 01:25:04,VALID,1002.78,VALID,0,INVALID,163.739,VALID,0,VALID,23.6239,VALID,350,VALID,0.74375,
2011-02-14, 01:26:04,VALID,1002.79,VALID,0,INVALID,163.739,VALID,0,VALID,23.661,VALID,351,VALID,0.58125,
2011-02-14, 01:27:04,VALID,1002.79,VALID,0,INVALID,163.731,VALID,0,VALID,23.6628,VALID,351,VALID,0.642969,
2011-02-14, 01:28:04,VALID,1002.78,VALID,0,INVALID,163.708,VALID,0,VALID,23.7035,VALID,350,VALID,0.438672,
2011-02-14, 01:29:04,VALID,1002.79,VALID,0,INVALID,163.762,VALID,0,VALID,23.7035,VALID,350,VALID,0.611328,
2011-02-14, 01:30:04,VALID,1002.79,VALID,0,INVALID,163.739,VALID,0,VALID,23.6628,VALID,350,VALID,0.740234,
2011-02-14, 01:31:04,VALID,1002.78,VALID,0,INVALID,163.731,VALID,0,VALID,23.6628,VALID,2,VALID,0.634375,
2011-02-14, 01:32:04,VALID,1002.76,VALID,0,INVALID,163.716,VALID,0,VALID,23.6628,VALID,1,VALID,0.590625,
2011-02-14, 01:33:04,VALID,1002.76,VALID,0,INVALID,163.739,VALID,0,VALID,23.6841,VALID,1,VALID,0.718359,
2011-02-14, 01:34:04,VALID,1002.77,VALID,0,INVALID,163.739,VALID,0.100563,VALID,23.6416,VALID,360,VALID,0.497656,
2011-02-14, 01:35:04,VALID,1002.71,VALID,0,INVALID,163.731,VALID,0,VALID,23.7017,VALID,354,VALID,0.536328,
2011-02-14, 01:36:04,VALID,1002.72,VALID,0,INVALID,163.731,VALID,0,VALID,23.7796,VALID,341,VALID,0.613281,
2011-02-14, 01:37:04,VALID,1002.69,VALID,0,INVALID,163.701,VALID,0,VALID,23.8575,VALID,347,VALID,0.439453,
2011-02-14, 01:38:04,VALID,1002.68,VALID,0,INVALID,163.723,VALID,0,VALID,23.9548,VALID,339,VALID,0.529688,
2011-02-14, 01:39:04,VALID,1002.65,VALID,0,INVALID,163.701,VALID,0,VALID,24.0132,VALID,341,VALID,0.396484,
2011-02-14, 01:40:04,VALID,1002.65,VALID,0,INVALID,163.693,VALID,0,VALID,24.0521,VALID,341,VALID,0,
2011-02-14, 01:41:04,VALID,1002.64,VALID,0,INVALID,163.723,VALID,0,VALID,24.1123,VALID,341,VALID,0.485938,
2011-02-14, 01:42:04,VALID,1002.65,VALID,0,INVALID,163.693,VALID,0,VALID,24.091,VALID,341,VALID,0.378125,
2011-02-14, 01:43:04,VALID,1002.66,VALID,0,INVALID,163.708,VALID,0,VALID,24.1105,VALID,341,VALID,0.436328,
2011-02-14, 01:44:04,VALID,1002.64,VALID,0,INVALID,163.693,VALID,0,VALID,24.091,VALID,341,VALID,0.546484,
2011-02-14, 01:45:04,VALID,1002.65,VALID,0,INVALID,163.708,VALID,0,VALID,24.0716,VALID,342,VALID,0.547656,
2011-02-14, 01:46:04,VALID,1002.64,VALID,0,INVALID,163.716,VALID,0,VALID,24.0539,VALID,342,VALID,0.356641,
2011-02-14, 01:47:04,VALID,1002.63,VALID,0,INVALID,163.723,VALID,0,VALID,23.9937,VALID,342,VALID,0.358984,
2011-02-14, 01:48:04,VALID,1002.63,VALID,0,INVALID,163.723,VALID,0,VALID,23.9742,VALID,351,VALID,0.420312,
2011-02-14, 01:49:04,VALID,1002.64,VALID,0,INVALID,163.716,VALID,0,VALID,23.914,VALID,351,VALID,0.480078,
2011-02-14, 01:50:04,VALID,1002.64,VALID,0,INVALID,163.708,VALID,0,VALID,23.8964,VALID,351,VALID,0.533203,
2011-02-14, 01:51:04,VALID,1002.62,VALID,0,INVALID,163.716,VALID,0,VALID,23.8575,VALID,349,VALID,0.459766,
2011-02-14, 01:52:04,VALID,1002.6,VALID,0,INVALID,163.731,VALID,0,VALID,23.8185,VALID,356,VALID,0.547656,
2011-02-14, 01:53:04,VALID,1002.61,VALID,0,INVALID,163.746,VALID,0,VALID,23.7796,VALID,351,VALID,0.628516,
2011-02-14, 01:54:04,VALID,1002.61,VALID,0,INVALID,163.739,VALID,0,VALID,23.7601,VALID,351,VALID,0.647656,
2011-02-14, 01:55:04,VALID,1002.59,VALID,0,INVALID,163.746,VALID,0,VALID,23.7212,VALID,354,VALID,0.666016,
2011-02-14, 01:56:04,VALID,1002.58,VALID,0,INVALID,163.716,VALID,0,VALID,23.7017,VALID,354,VALID,0.510547,
2011-02-14, 01:57:04,VALID,1002.57,VALID,0,INVALID,163.739,VALID,0,VALID,23.6823,VALID,353,VALID,0.692187,
2011-02-14, 01:58:04,VALID,1002.57,VALID,0,INVALID,163.739,VALID,0,VALID,23.6239,VALID,353,VALID,0.659766,
2011-02-14, 01:59:04,VALID,1002.57,VALID,0,INVALID,163.762,VALID,0,VALID,23.6044,VALID,354,VALID,0.866016,
2011-02-14, 02:00:04,VALID,1002.58,VALID,0,INVALID,163.716,VALID,0,VALID,23.6062,VALID,354,VALID,0.710938,
2011-02-14, 02:01:04,VALID,1002.61,VALID,0,INVALID,163.739,VALID,0,VALID,23.546,VALID,354,VALID,0.564453,
2011-02-14, 02:02:04,VALID,1002.57,VALID,0,INVALID,163.723,VALID,0,VALID,23.5266,VALID,354,VALID,0.6125,
2011-02-14, 02:03:04,VALID,1002.58,VALID,0,INVALID,163.739,VALID,0,VALID,23.4859,VALID,354,VALID,0.516406,
2011-02-14, 02:04:04,VALID,1002.57,VALID,0,INVALID,163.746,VALID,0,VALID,23.4877,VALID,354,VALID,0.455859,
2011-02-14, 02:05:04,VALID,1002.56,VALID,0,INVALID,163.762,VALID,0,VALID,23.4682,VALID,353,VALID,0.380859,
2011-02-14, 02:06:04,VALID,1002.55,VALID,0,INVALID,163.754,VALID,0,VALID,23.4682,VALID,360,VALID,0.532422,
2011-02-14, 02:07:04,VALID,1002.54,VALID,0,INVALID,163.754,VALID,0,VALID,23.5071,VALID,347,VALID,0.651563,
2011-02-14, 02:08:04,VALID,1002.55,VALID,0,INVALID,163.731,VALID,0,VALID,23.5655,VALID,319,VALID,0.466406,
2011-02-14, 02:09:04,VALID,1002.54,VALID,0,INVALID,163.762,VALID,0,VALID,23.6434,VALID,5,VALID,0.574609,
2011-02-14, 02:10:04,VALID,1002.56,VALID,0,INVALID,163.723,VALID,0,VALID,23.6823,VALID,5,VALID,0.351563,
2011-02-14, 02:11:04,VALID,1002.59,VALID,0,INVALID,163.731,VALID,0,VALID,23.7017,VALID,356,VALID,0.477734,
2011-02-14, 02:12:04,VALID,1002.53,VALID,0,INVALID,163.723,VALID,0,VALID,23.7601,VALID,344,VALID,0.607813,
2011-02-14, 02:13:04,VALID,1002.57,VALID,0,INVALID,163.701,VALID,0,VALID,23.838,VALID,341,VALID,0.533594,
2011-02-14, 02:14:04,VALID,1002.53,VALID,0,INVALID,163.723,VALID,0,VALID,23.9159,VALID,342,VALID,0.587109,
2011-02-14, 02:15:04,VALID,1002.49,VALID,0,INVALID,163.716,VALID,0,VALID,23.9742,VALID,348,VALID,0.517187,
2011-02-14, 02:16:04,VALID,1002.48,VALID,0,INVALID,163.693,VALID,0,VALID,24.0308,VALID,345,VALID,0.492969,
2011-02-14, 02:17:04,VALID,1002.47,VALID,0,INVALID,163.685,VALID,0,VALID,24.0326,VALID,345,VALID,0.421094,
2011-02-14, 02:18:04,VALID,1002.46,VALID,0,INVALID,163.716,VALID,0,VALID,24.015,VALID,345,VALID,0.639063,
2011-02-14, 02:19:04,VALID,1002.44,VALID,0,INVALID,163.746,VALID,0,VALID,23.9335,VALID,345,VALID,0.507813,
2011-02-14, 02:20:04,VALID,1002.41,VALID,0,INVALID,163.723,VALID,0,VALID,23.8964,VALID,345,VALID,0.347266,
2011-02-14, 02:21:04,VALID,1002.38,VALID,0,INVALID,163.746,VALID,0,VALID,23.8787,VALID,345,VALID,0.462109,
2011-02-14, 02:22:04,VALID,1002.39,VALID,0,INVALID,163.701,VALID,0.100563,VALID,23.7973,VALID,345,VALID,0.433594,
2011-02-14, 02:23:04,VALID,1002.4,VALID,0,INVALID,163.739,VALID,0,VALID,23.7778,VALID,345,VALID,0.445703,
2011-02-14, 02:24:04,VALID,1002.39,VALID,0,INVALID,163.723,VALID,0,VALID,23.7601,VALID,345,VALID,0.552344,
2011-02-14, 02:25:04,VALID,1002.38,VALID,0,INVALID,163.754,VALID,0,VALID,23.7017,VALID,345,VALID,0.517578,
2011-02-14, 02:26:04,VALID,1002.35,VALID,0,INVALID,163.716,VALID,0,VALID,23.661,VALID,10,VALID,0.8125,
2011-02-14, 02:27:04,VALID,1002.34,VALID,0,INVALID,163.754,VALID,0,VALID,23.6823,VALID,12,VALID,0.510938,
2011-02-14, 02:28:04,VALID,1002.35,VALID,0,INVALID,163.731,VALID,0,VALID,23.6823,VALID,12,VALID,0.557422,
2011-02-14, 02:29:04,VALID,1002.32,VALID,0,INVALID,163.739,VALID,0,VALID,23.6646,VALID,10,VALID,0.548828,
2011-02-14, 02:30:04,VALID,1002.28,VALID,0,INVALID,163.716,VALID,0,VALID,23.6239,VALID,10,VALID,0.654688,
2011-02-14, 02:31:04,VALID,1002.27,VALID,0,INVALID,163.739,VALID,0,VALID,23.5832,VALID,7,VALID,0.698047,
2011-02-14, 02:32:04,VALID,1002.24,VALID,0,INVALID,163.708,VALID,0,VALID,23.5655,VALID,7,VALID,0.378516,
2011-02-14, 02:33:04,VALID,1002.22,VALID,0,INVALID,163.731,VALID,0,VALID,23.5443,VALID,6,VALID,0.517187,
2011-02-14, 02:34:04,VALID,1002.2,VALID,0,INVALID,163.731,VALID,0,VALID,23.5655,VALID,6,VALID,0.429688,
2011-02-14, 02:35:04,VALID,1002.21,VALID,0,INVALID,163.746,VALID,0,VALID,23.5655,VALID,6,VALID,0.315234,
2011-02-14, 02:36:04,VALID,1002.19,VALID,0,INVALID,163.739,VALID,0,VALID,23.5673,VALID,6,VALID,0.483594,
2011-02-14, 02:37:04,VALID,1002.18,VALID,0,INVALID,163.746,VALID,0,VALID,23.5266,VALID,6,VALID,0.503516,
2011-02-14, 02:38:04,VALID,1002.17,VALID,0,INVALID,163.739,VALID,0,VALID,23.5071,VALID,6,VALID,0.645703,
2011-02-14, 02:39:04,VALID,1002.14,VALID,0,INVALID,163.746,VALID,0,VALID,23.5284,VALID,6,VALID,0.605469,
2011-02-14, 02:40:04,VALID,1002.1,VALID,0,INVALID,163.731,VALID,0,VALID,23.4682,VALID,2,VALID,0.566016,
2011-02-14, 02:41:04,VALID,1002.12,VALID,0,INVALID,163.739,VALID,0,VALID,23.4894,VALID,2,VALID,0.745703,
2011-02-14, 02:42:04,VALID,1002.05,VALID,0,INVALID,163.731,VALID,0,VALID,23.4894,VALID,359,VALID,0.684375,
2011-02-14, 02:43:04,VALID,1002.04,VALID,0,INVALID,163.731,VALID,0,VALID,23.4682,VALID,359,VALID,0.670313,
2011-02-14, 02:44:04,VALID,1002.05,VALID,0,INVALID,163.754,VALID,0,VALID,23.4487,VALID,359,VALID,0.839453,
2011-02-14, 02:45:04,VALID,1002.02,VALID,0,INVALID,163.754,VALID,0,VALID,23.4098,VALID,359,VALID,0.63125,
2011-02-14, 02:46:04,VALID,1002,VALID,0,INVALID,163.762,VALID,0,VALID,23.3904,VALID,359,VALID,0.664063,
2011-02-14, 02:47:04,VALID,1002,VALID,0,INVALID,163.754,VALID,0,VALID,23.3709,VALID,359,VALID,0.626953,
2011-02-14, 02:48:04,VALID,1002.01,VALID,0,INVALID,163.777,VALID,0,VALID,23.3514,VALID,359,VALID,0.540234,
2011-02-14, 02:49:04,VALID,1002.01,VALID,0,INVALID,163.769,VALID,0,VALID,23.3125,VALID,359,VALID,0.613281,
2011-02-14, 02:50:04,VALID,1001.99,VALID,0,INVALID,163.754,VALID,0,VALID,23.2931,VALID,359,VALID,0.473047,
2011-02-14, 02:51:04,VALID,1001.97,VALID,0,INVALID,163.762,VALID,0.100563,VALID,23.2931,VALID,350,VALID,0.646875,
2011-02-14, 02:52:04,VALID,1001.97,VALID,0,INVALID,163.762,VALID,0,VALID,23.2524,VALID,5,VALID,0.394141,
2011-02-14, 02:53:04,VALID,1001.99,VALID,0,INVALID,163.777,VALID,0,VALID,23.2541,VALID,347,VALID,0.588281,
2011-02-14, 02:54:04,VALID,1002.01,VALID,0,INVALID,163.769,VALID,0,VALID,23.2931,VALID,347,VALID,0.520312,
2011-02-14, 02:55:04,VALID,1002,VALID,0,INVALID,163.762,VALID,0,VALID,23.3125,VALID,347,VALID,0.615234,
2011-02-14, 02:56:04,VALID,1002.01,VALID,0,INVALID,163.769,VALID,0,VALID,23.3125,VALID,347,VALID,0.566797,
2011-02-14, 02:57:04,VALID,1002.02,VALID,0,INVALID,163.762,VALID,0,VALID,23.3532,VALID,347,VALID,0.435156,
2011-02-14, 02:58:04,VALID,1002.02,VALID,0,INVALID,163.762,VALID,0,VALID,23.332,VALID,347,VALID,0.451953,
2011-02-14, 02:59:04,VALID,1002,VALID,0,INVALID,163.762,VALID,0,VALID,23.3107,VALID,347,VALID,0.392188,
2011-02-14, 03:00:04,VALID,1002.01,VALID,0,INVALID,163.769,VALID,0,VALID,23.3532,VALID,347,VALID,0.356641,
2011-02-14, 03:01:04,VALID,1002.03,VALID,0,INVALID,163.777,VALID,0,VALID,23.332,VALID,347,VALID,0.540625,
2011-02-14, 03:02:04,VALID,1002.01,VALID,0,INVALID,163.762,VALID,0,VALID,23.332,VALID,347,VALID,0.417578,
2011-02-14, 03:03:04,VALID,1002,VALID,0,INVALID,163.784,VALID,0,VALID,23.3514,VALID,346,VALID,0.457031,
2011-02-14, 03:04:04,VALID,1001.98,VALID,0,INVALID,163.792,VALID,0,VALID,23.3514,VALID,346,VALID,0.6625,
2011-02-14, 03:05:04,VALID,1001.98,VALID,0,INVALID,163.792,VALID,0,VALID,23.3514,VALID,349,VALID,0.646875,
2011-02-14, 03:06:04,VALID,1001.96,VALID,0,INVALID,163.784,VALID,0,VALID,23.3532,VALID,349,VALID,0.599219,
2011-02-14, 03:07:04,VALID,1001.95,VALID,0,INVALID,163.739,VALID,0,VALID,23.332,VALID,349,VALID,0.535547,
2011-02-14, 03:08:04,VALID,1001.94,VALID,0,INVALID,163.769,VALID,0,VALID,23.2931,VALID,341,VALID,0.559766,
2011-02-14, 03:09:04,VALID,1001.96,VALID,0,INVALID,163.746,VALID,0,VALID,23.2931,VALID,357,VALID,0.655078,
2011-02-14, 03:10:04,VALID,1001.97,VALID,0,INVALID,163.762,VALID,0,VALID,23.2524,VALID,357,VALID,0.396484,
2011-02-14, 03:11:04,VALID,1001.97,VALID,0,INVALID,163.777,VALID,0,VALID,23.2736,VALID,356,VALID,0.714063,
2011-02-14, 03:12:04,VALID,1001.97,VALID,0,INVALID,163.8,VALID,0,VALID,23.2736,VALID,356,VALID,0.696484,
2011-02-14, 03:13:04,VALID,1001.99,VALID,0,INVALID,163.754,VALID,0,VALID,23.2736,VALID,356,VALID,0.511719,
2011-02-14, 03:14:04,VALID,1001.94,VALID,0,INVALID,163.792,VALID,0,VALID,23.2736,VALID,355,VALID,0.533984,
2011-02-14, 03:15:04,VALID,1001.92,VALID,0,INVALID,163.769,VALID,0,VALID,23.2541,VALID,355,VALID,0.542188,
2011-02-14, 03:16:04,VALID,1001.89,VALID,0,INVALID,163.777,VALID,0.100563,VALID,23.2736,VALID,355,VALID,0.343359,
2011-02-14, 03:17:04,VALID,1001.9,VALID,0,INVALID,163.754,VALID,0,VALID,23.2329,VALID,355,VALID,0.452344,
2011-02-14, 03:18:04,VALID,1001.91,VALID,0,INVALID,163.762,VALID,0,VALID,23.2541,VALID,355,VALID,0.424609,
2011-02-14, 03:19:04,VALID,1001.88,VALID,0,INVALID,163.754,VALID,0,VALID,23.2541,VALID,355,VALID,0.315234,
2011-02-14, 03:20:04,VALID,1001.86,VALID,0,INVALID,163.769,VALID,0,VALID,23.2329,VALID,355,VALID,0.351563,
2011-02-14, 03:21:04,VALID,1001.87,VALID,0,INVALID,163.754,VALID,0,VALID,23.2347,VALID,355,VALID,0.208203,
2011-02-14, 03:22:04,VALID,1001.88,VALID,0,INVALID,163.762,VALID,0,VALID,23.2541,VALID,355,VALID,0.421484,
2011-02-14, 03:23:04,VALID,1001.87,VALID,0,INVALID,163.769,VALID,0,VALID,23.2347,VALID,355,VALID,0.401172,
2011-02-14, 03:24:04,VALID,1001.87,VALID,0,INVALID,163.762,VALID,0,VALID,23.2347,VALID,355,VALID,0.469922,
2011-02-14, 03:25:04,VALID,1001.91,VALID,0,INVALID,163.762,VALID,0,VALID,23.2134,VALID,355,VALID,0.5375,
2011-02-14, 03:26:04,VALID,1001.92,VALID,0,INVALID,163.754,VALID,0,VALID,23.2134,VALID,355,VALID,0.510156,
2011-02-14, 03:27:04,VALID,1001.94,VALID,0,INVALID,163.739,VALID,0,VALID,23.194,VALID,355,VALID,0.487109,
2011-02-14, 03:28:04,VALID,1001.94,VALID,0,INVALID,163.777,VALID,0,VALID,23.194,VALID,355,VALID,0.507813,
2011-02-14, 03:29:04,VALID,1001.96,VALID,0,INVALID,163.792,VALID,0,VALID,23.1957,VALID,355,VALID,0.301172,
2011-02-14, 03:30:04,VALID,1001.96,VALID,0,INVALID,163.762,VALID,0,VALID,23.1745,VALID,355,VALID,0.420312,
2011-02-14, 03:31:04,VALID,1002,VALID,0,INVALID,163.762,VALID,0,VALID,23.1763,VALID,355,VALID,0.466406,
2011-02-14, 03:32:04,VALID,1001.98,VALID,0,INVALID,163.815,VALID,0,VALID,23.1763,VALID,355,VALID,0.369531,
2011-02-14, 03:33:04,VALID,1002,VALID,0,INVALID,163.784,VALID,0,VALID,23.1763,VALID,355,VALID,0.423047,
2011-02-14, 03:34:04,VALID,1002,VALID,0,INVALID,163.769,VALID,0,VALID,23.1763,VALID,355,VALID,0.574609,
2011-02-14, 03:35:04,VALID,1002.02,VALID,0,INVALID,163.777,VALID,0,VALID,23.1568,VALID,355,VALID,0.567969,
2011-02-14, 03:36:04,VALID,1002,VALID,0,INVALID,163.823,VALID,0,VALID,23.1162,VALID,355,VALID,0.740234,
2011-02-14, 03:37:04,VALID,1001.99,VALID,0,INVALID,163.762,VALID,0,VALID,23.1374,VALID,352,VALID,0.538281,
2011-02-14, 03:38:04,VALID,1002.01,VALID,0,INVALID,163.792,VALID,0,VALID,23.1179,VALID,351,VALID,0.61875,
2011-02-14, 03:39:04,VALID,1001.98,VALID,0,INVALID,163.792,VALID,0,VALID,23.1179,VALID,351,VALID,0.576953,